Hourly Data Report for July 05, 2021

DRYDEN REGIONAL
ONTARIO
Current Station Operator: NAVCAN

49°49'39.000" N
92°44'39.000" W
412.70 m
6032125
71527
YHD

Download Data

Hourly Data (July 2021)
Hourly Data Report for July 5, 2021
TIME
LST
Temp Definition
°C
Dew Point Definition
°C
Rel Hum Definition
%
Precip. Amount Definition
mm

Wind Dir Definition
10's deg

Wind Spd Definition
km/h
Visibility Definition
km
Stn Press Definition
kPa
Hmdx Definition


Wind Chill Definition


Weather Definition


00:00 21.3 20.0 92 0.0 27 11 16.1 95.88 29   LegendNANA
01:00 20.4 19.4 94 0.0 26 9 16.1 95.89 27   LegendNANA
02:00 20.1 17.5 85 0.0 29 13 16.1 95.94 26   LegendNANA
03:00 19.3 16.8 85 0.0 29 13 16.1 95.98     LegendNANA
04:00 18.2 16.2 88 0.0 27 15 16.1 96.02     LegendNANA
05:00 17.9 16.1 89 0.0 27 13 16.1 96.07     LegendNANA
06:00 18.6 16.4 87 0.0 27 13 9.7 96.13     Haze
07:00 20.2 16.8 80 0.0 29 11 8.1 96.19 25   Haze
08:00 21.9 15.6 67 0.0 32 15 9.7 96.23 26   Haze
09:00 23.0 15.1 61 0.0 31 17 11.3 96.28 27   LegendNANA
10:00 24.4 13.4 50 0.0 30 21 12.9 96.33 27   LegendNANA
11:00 25.7 14.3 49 0.0 31 24 16.1 96.35 29   LegendNANA
12:00 26.0 13.4 45 0.0 29 26 16.1 96.37 29   LegendNANA
13:00 26.8 13.7 44 0.0 28 28 16.1 96.38 30   LegendNANA
14:00 26.7 13.5 44 0.0 29 17 16.1 96.39 30   LegendNANA
15:00 26.1 14.1 47 0.0 29 17 16.1 96.43 30   LegendNANA
16:00 26.4 14.0 46 0.0 30 22 16.1 96.42 30   LegendNANA
17:00 25.9 12.0 42 0.0 30 24 16.1 96.44 28   LegendNANA
18:00 23.9 13.4 51 0.0 33 13 16.1 96.50 27   LegendNANA
19:00 21.6 12.9 57 0.0 35 15 4.8 96.56     Haze
20:00 18.2 11.4 64 0.0 36 21 16.1 96.67     LegendNANA
21:00 15.8 10.0 68 0.0 36 13 14.5 96.81     LegendNANA
22:00 14.5 9.4 71 0.0 2 13 16.1 96.88     LegendNANA
23:00 12.9 8.8 76 0.0 3 18 16.1 96.89     LegendNANA

Notes on Data Quality.

Legend

  • E = Estimated
  • M = Missing
  • NA = Not Available*
  • [empty] = Indicates an unobserved value
Date modified: